• In Kazakhstan
  • List of Countries
  • For 7 days
  • Water Temperature
  • Weather Map
  • News
  • Weather Widgets
  • user-avatar
    Login

    Hourly Weather Akhaltsikhe

    Today, 19 January, Sunday

    Time Temperature Precipitation Wind Pressure Humidity
    00:00 -9°C° 0 mm 1 mps 646 mmHg 71%
    01:00 -9°C° 0 mm 1 mps 646 mmHg 70%
    02:00 -9°C° 0 mm 1 mps 646 mmHg 68%
    03:00 -9°C° 0 mm 1 mps 646 mmHg 67%
    04:00 -9°C° 0 mm 1 mps 646 mmHg 67%
    05:00 -9°C° 0 mm 1 mps 646 mmHg 66%
    06:00 -9°C° 0 mm 1 mps 646 mmHg 65%
    07:00 -8°C° 0 mm 1 mps 646 mmHg 66%
    08:00 -7°C° 0 mm 1 mps 647 mmHg 68%
    09:00 -6°C° 0 mm 1 mps 647 mmHg 69%
    10:00 -4°C° 0 mm 1 mps 647 mmHg 68%
    11:00 -2°C° 0 mm 1 mps 648 mmHg 67%
    12:00 -1°C° 0 mm 1 mps 648 mmHg 66%
    13:00 0°C° 0 mm 1 mps 648 mmHg 68%
    14:00 0°C° 0 mm 1 mps 648 mmHg 69%
    15:00 0°C° 0 mm 1 mps 648 mmHg 71%
    16:00 -1°C° 0 mm 1 mps 648 mmHg 71%
    17:00 -3°C° 0 mm 1 mps 648 mmHg 72%
    18:00 -4°C° 0 mm 1 mps 648 mmHg 73%
    19:00 -4°C° 0 mm 1 mps 648 mmHg 73%
    20:00 -6°C° 0 mm 1 mps 648 mmHg 74%
    21:00 -6°C° 0 mm 1 mps 648 mmHg 75%
    22:00 -6°C° 0 mm 1 mps 649 mmHg 76%
    23:00 -7°C° 0 mm 1 mps 649 mmHg 77%

    Tomorrow, 20 January, Monday

    Time Temperature Precipitation Wind Pressure Humidity
    00:00 -7°C° 0 mm 1 mps 649 mmHg 77%
    01:00 -7°C° 0 mm 1 mps 649 mmHg 78%
    02:00 -7°C° 0 mm 1 mps 649 mmHg 78%
    03:00 -8°C° 0 mm 1 mps 649 mmHg 78%
    04:00 -8°C° 0 mm 1 mps 649 mmHg 78%
    05:00 -8°C° 0 mm 1 mps 649 mmHg 79%
    06:00 -8°C° 0 mm 1 mps 649 mmHg 79%
    07:00 -7°C° 0 mm 1 mps 649 mmHg 79%
    08:00 -6°C° 0 mm 1 mps 650 mmHg 79%
    09:00 -6°C° 0 mm 0 mps 650 mmHg 78%
    10:00 -3°C° 0 mm 1 mps 651 mmHg 78%
    11:00 -2°C° 0 mm 1 mps 651 mmHg 77%
    12:00 0°C° 0 mm 1 mps 651 mmHg 76%
    13:00 0°C° 0 mm 1 mps 651 mmHg 77%
    14:00 0°C° 0 mm 0 mps 651 mmHg 78%
    15:00 0°C° 0 mm 0 mps 651 mmHg 79%
    16:00 -1°C° 0 mm 0 mps 651 mmHg 81%
    17:00 -3°C° 0 mm 0 mps 651 mmHg 83%
    18:00 -4°C° 0 mm 0 mps 651 mmHg 85%
    19:00 -5°C° 0 mm 0 mps 651 mmHg 85%
    20:00 -4°C° 0 mm 1 mps 651 mmHg 86%
    21:00 -6°C° 0 mm 1 mps 651 mmHg 86%
    22:00 -6°C° 0 mm 1 mps 651 mmHg 87%
    23:00 -6°C° 0 mm 1 mps 651 mmHg 87%

    Day after tomorrow, 21 January, Tuesday

    Time Temperature Precipitation Wind Pressure Humidity
    00:00 -6°C° 0 mm 1 mps 651 mmHg 88%
    01:00 -7°C° 0 mm 1 mps 651 mmHg 88%
    02:00 -7°C° 0 mm 1 mps 651 mmHg 89%
    03:00 -7°C° 0 mm 1 mps 651 mmHg 89%
    04:00 -7°C° 0 mm 1 mps 651 mmHg 89%
    05:00 -8°C° 0 mm 1 mps 651 mmHg 89%
    06:00 -8°C° 0 mm 1 mps 650 mmHg 89%
    07:00 -7°C° 0 mm 1 mps 651 mmHg 88%
    08:00 -6°C° 0 mm 1 mps 651 mmHg 88%
    09:00 -6°C° 0 mm 1 mps 652 mmHg 87%
    10:00 -3°C° 0 mm 1 mps 652 mmHg 86%
    11:00 -2°C° 0 mm 1 mps 652 mmHg 85%
    12:00 -1°C° 0 mm 1 mps 652 mmHg 84%
    13:00 -1°C° 0.1 mm 1 mps 652 mmHg 85%
    14:00 0°C° 0.1 mm 1 mps 652 mmHg 85%
    15:00 0°C° 0.1 mm 1 mps 652 mmHg 86%
    16:00 -1°C° 0.1 mm 1 mps 652 mmHg 89%
    17:00 -3°C° 0.1 mm 1 mps 652 mmHg 91%
    18:00 -4°C° 0.1 mm 1 mps 652 mmHg 93%
    19:00 -4°C° 0.1 mm 1 mps 652 mmHg 93%
    20:00 -4°C° 0.1 mm 1 mps 652 mmHg 92%
    21:00 -6°C° 0.1 mm 1 mps 652 mmHg 91%
    22:00 -6°C° 0.1 mm 1 mps 652 mmHg 91%
    23:00 -6°C° 0.1 mm 1 mps 652 mmHg 91%

    22 January, Wednesday

    Time Temperature Precipitation Wind Pressure Humidity
    00:00 -7°C° 0.1 mm 1 mps 652 mmHg 91%
    01:00 -7°C° 0 mm 1 mps 652 mmHg 90%
    02:00 -8°C° 0 mm 1 mps 652 mmHg 89%
    03:00 -8°C° 0 mm 1 mps 652 mmHg 88%
    04:00 -8°C° 0 mm 1 mps 651 mmHg 88%
    05:00 -8°C° 0 mm 1 mps 651 mmHg 88%
    06:00 -9°C° 0 mm 1 mps 651 mmHg 88%
    07:00 -8°C° 0 mm 1 mps 651 mmHg 87%
    08:00 -7°C° 0 mm 1 mps 652 mmHg 87%
    09:00 -7°C° 0 mm 1 mps 652 mmHg 87%
    10:00 -6°C° 0 mm 1 mps 652 mmHg 85%
    11:00 -3°C° 0 mm 1 mps 652 mmHg 83%
    12:00 -2°C° 0 mm 1 mps 652 mmHg 81%
    13:00 -2°C° 0.1 mm 1 mps 651 mmHg 82%
    14:00 -1°C° 0.1 mm 1 mps 651 mmHg 82%
    15:00 -1°C° 0.1 mm 1 mps 651 mmHg 83%
    16:00 -2°C° 0.1 mm 1 mps 651 mmHg 86%
    17:00 -4°C° 0.1 mm 1 mps 650 mmHg 88%
    18:00 -6°C° 0.1 mm 1 mps 650 mmHg 91%
    19:00 -6°C° 0.1 mm 1 mps 650 mmHg 90%
    20:00 -6°C° 0.1 mm 1 mps 649 mmHg 89%
    21:00 -7°C° 0.1 mm 1 mps 649 mmHg 89%
    22:00 -7°C° 0 mm 1 mps 649 mmHg 88%
    23:00 -7°C° 0 mm 1 mps 648 mmHg 87%

    23 January, Thursday

    Time Temperature Precipitation Wind Pressure Humidity
    00:00 -8°C° 0 mm 1 mps 647 mmHg 86%
    01:00 -8°C° 0 mm 1 mps 647 mmHg 86%
    02:00 -8°C° 0 mm 1 mps 646 mmHg 85%
    03:00 -9°C° 0 mm 1 mps 646 mmHg 84%
    04:00 -8°C° 0 mm 1 mps 645 mmHg 84%
    05:00 -8°C° 0 mm 1 mps 645 mmHg 84%
    06:00 -8°C° 0 mm 1 mps 644 mmHg 84%
    07:00 -8°C° 0 mm 1 mps 644 mmHg 84%
    08:00 -7°C° 0 mm 1 mps 644 mmHg 84%
    09:00 -6°C° 0 mm 1 mps 644 mmHg 84%
    10:00 -4°C° 0 mm 1 mps 644 mmHg 83%
    11:00 -3°C° 0 mm 1 mps 644 mmHg 83%
    12:00 -2°C° 0 mm 1 mps 643 mmHg 82%
    13:00 -1°C° 0.2 mm 1 mps 643 mmHg 83%
    14:00 -1°C° 0.2 mm 1 mps 643 mmHg 84%
    15:00 -1°C° 0.2 mm 1 mps 642 mmHg 85%
    16:00 -2°C° 0.1 mm 1 mps 642 mmHg 87%
    17:00 -3°C° 0.1 mm 1 mps 642 mmHg 88%
    18:00 -6°C° 0.1 mm 1 mps 642 mmHg 90%
    19:00 -6°C° 0 mm 1 mps 641 mmHg 88%
    20:00 -7°C° 0 mm 1 mps 641 mmHg 86%
    21:00 -8°C° 0 mm 2 mps 641 mmHg 84%
    22:00 -7°C° 0.3 mm 1 mps 641 mmHg 86%
    23:00 -7°C° 0.3 mm 1 mps 641 mmHg 88%

    24 January, Friday

    Time Temperature Precipitation Wind Pressure Humidity
    00:00 -7°C° 0.3 mm 1 mps 642 mmHg 90%
    01:00 -7°C° 0.7 mm 1 mps 641 mmHg 91%
    02:00 -7°C° 0.7 mm 1 mps 641 mmHg 91%
    03:00 -8°C° 0.7 mm 1 mps 641 mmHg 92%
    04:00 -7°C° 1 mm 1 mps 642 mmHg 92%
    05:00 -7°C° 1 mm 1 mps 642 mmHg 92%
    06:00 -8°C° 1 mm 2 mps 643 mmHg 92%
    07:00 -8°C° 0.1 mm 1 mps 643 mmHg 90%
    08:00 -8°C° 0.1 mm 1 mps 644 mmHg 89%
    09:00 -8°C° 0.1 mm 1 mps 644 mmHg 87%
    10:00 -7°C° 0.3 mm 1 mps 645 mmHg 84%
    11:00 -6°C° 0.3 mm 1 mps 645 mmHg 81%
    12:00 -6°C° 0.3 mm 2 mps 645 mmHg 78%
    13:00 -6°C° 0.2 mm 2 mps 645 mmHg 78%
    14:00 -6°C° 0.2 mm 2 mps 645 mmHg 79%
    15:00 -6°C° 0.2 mm 2 mps 645 mmHg 79%
    16:00 -8°C° 0.1 mm 2 mps 646 mmHg 83%
    17:00 -10°C° 0.1 mm 2 mps 646 mmHg 87%
    18:00 -10°C° 0.1 mm 1 mps 646 mmHg 91%
    19:00 -11°C° 0 mm 1 mps 646 mmHg 91%
    20:00 -12°C° 0 mm 1 mps 647 mmHg 91%
    21:00 -13°C° 0 mm 1 mps 647 mmHg 91%
    22:00 -13°C° 0 mm 1 mps 647 mmHg 90%
    23:00 -13°C° 0 mm 1 mps 648 mmHg 90%
    Show more